| time (UTC) | temp F | wind direction | speed knots | gust knots | rain 1hr in | rain 24hr in | rain mn in | humidity % | barometer mb |
| 20260504211041 | 58 | 355 | 7.0 | 17.4 | 0.03 | 0.03 | 0.03 | 53 | 1010.1 |
| 20260504210541 | 58 | 14 | 6.1 | 17.4 | 0.03 | 0.03 | 0.03 | 52 | 1010.2 |
| 20260504210048 | 59 | 26 | 6.1 | 15.6 | 0.03 | 0.03 | 0.03 | 54 | 1010.1 |
| 20260504205541 | 58 | 34 | 6.1 | 21.7 | 0.03 | 0.03 | 0.03 | 55 | 1010.2 |
| 20260504205040 | 56 | 327 | 7.8 | 21.7 | 0.03 | 0.03 | 0.03 | 57 | 1010.2 |
| 20260504204601 | 55 | 34 | 5.2 | 24.3 | 0.03 | 0.03 | 0.03 | 55 | 1009.9 |
| 20260504204040 | 58 | 71 | 8.7 | 24.3 | 0.03 | 0.03 | 0.03 | 50 | 1010.3 |
| 20260504203540 | 63 | 344 | 13.0 | 20.0 | 0.01 | 0.01 | 0.01 | 36 | 1009.7 |
| 20260504203046 | 68 | 47 | 3.5 | 10.4 | 0.00 | 0.00 | 0.00 | 25 | 1010.0 |
| 20260504202540 | 69 | 336 | 3.5 | 7.8 | 0.00 | 0.00 | 0.00 | 24 | 1009.3 |
| 20260504202044 | 69 | 318 | 3.5 | 8.7 | 0.00 | 0.00 | 0.00 | 24 | 1009.2 |
| 20260504201549 | 68 | 252 | 4.3 | 13.0 | 0.00 | 0.00 | 0.00 | 26 | 1009.2 |
| 20260504201041 | 68 | 275 | 4.3 | 13.0 | 0.00 | 0.00 | 0.00 | 26 | 1009.2 |
| 20260504200544 | 68 | 208 | 6.1 | 12.2 | 0.00 | 0.00 | 0.00 | 25 | 1009.3 |
| 20260504195540 | 69 | 215 | 4.3 | 14.8 | 0.00 | 0.00 | 0.00 | 24 | 1009.3 |
| 20260504195041 | 69 | 246 | 4.3 | 15.6 | 0.00 | 0.00 | 0.00 | 24 | 1009.2 |
| 20260504194546 | 68 | 272 | 7.0 | 15.6 | 0.00 | 0.00 | 0.00 | 24 | 1009.4 |
| 20260504194041 | 69 | 216 | 7.8 | 15.6 | 0.00 | 0.00 | 0.00 | 20 | 1009.3 |
| 20260504193541 | 70 | 211 | 6.1 | 15.6 | 0.00 | 0.00 | 0.00 | 20 | 1009.2 |
| 20260504193046 | 70 | 194 | 2.6 | 13.9 | 0.00 | 0.00 | 0.00 | 20 | 1009.2 |
| 20260504192540 | 70 | 269 | 5.2 | 13.9 | 0.00 | 0.00 | 0.00 | 20 | 1009.2 |
| 20260504192041 | 70 | 229 | 0.9 | 7.0 | 0.00 | 0.00 | 0.00 | 22 | 1009.1 |
| 20260504191549 | 69 | 235 | 0.9 | 9.6 | 0.00 | 0.00 | 0.00 | 20 | 1009.1 |
| 20260504191040 | 69 | 200 | 1.7 | 11.3 | 0.00 | 0.00 | 0.00 | 20 | 1009.2 |
| 20260504190541 | 69 | 277 | 2.6 | 11.3 | 0.00 | 0.00 | 0.00 | 21 | 1009.2 |
| 20260504190049 | 70 | 313 | 2.6 | 10.4 | 0.00 | 0.00 | 0.00 | 20 | 1009.2 |
| 20260504185541 | 69 | 331 | 4.3 | 12.2 | 0.00 | 0.00 | 0.00 | 20 | 1009.3 |
| 20260504185041 | 70 | 355 | 5.2 | 12.2 | 0.00 | 0.00 | 0.00 | 20 | 1009.2 |
| 20260504184555 | 70 | 336 | 2.6 | 10.4 | 0.00 | 0.00 | 0.00 | 20 | 1009.3 |
| 20260504184041 | 70 | 355 | 1.7 | 10.4 | 0.00 | 0.00 | 0.00 | 21 | 1009.4 |
| 20260504183541 | 70 | 347 | 3.5 | 11.3 | 0.00 | 0.00 | 0.00 | 22 | 1009.5 |
| 20260504183049 | 69 | 317 | 3.5 | 11.3 | 0.00 | 0.00 | 0.00 | 21 | 1009.6 |
| 20260504182540 | 69 | 303 | 4.3 | 9.6 | 0.00 | 0.00 | 0.00 | 22 | 1009.8 |
| 20260504182040 | 69 | 226 | 3.5 | 9.6 | 0.00 | 0.00 | 0.00 | 23 | 1009.8 |
| 20260504181553 | 69 | 277 | 3.5 | 13.9 | 0.00 | 0.00 | 0.00 | 23 | 1009.9 |
| 20260504181041 | 69 | 268 | 2.6 | 13.9 | 0.00 | 0.00 | 0.00 | 23 | 1010.1 |
| 20260504180544 | 69 | 221 | 6.1 | 12.2 | 0.00 | 0.00 | 0.00 | 22 | 1010.2 |
| 20260504180044 | 69 | 253 | 3.5 | 10.4 | 0.00 | 0.00 | 0.00 | 24 | 1010.4 |
| 20260504175540 | 68 | 254 | 2.6 | 11.3 | 0.00 | 0.00 | 0.00 | 24 | 1010.4 |
| 20260504175043 | 68 | 270 | 6.1 | 13.9 | 0.00 | 0.00 | 0.00 | 25 | 1010.5 |
| 20260504174549 | 68 | 312 | 6.1 | 13.9 | 0.00 | 0.00 | 0.00 | 25 | 1010.6 |
| 20260504174040 | 67 | 168 | 5.2 | 13.0 | 0.00 | 0.00 | 0.00 | 26 | 1010.7 |
| 20260504173539 | 66 | 326 | 7.0 | 13.0 | 0.00 | 0.00 | 0.00 | 27 | 1010.9 |
| 20260504173048 | 65 | 216 | 5.2 | 12.2 | 0.00 | 0.00 | 0.00 | 28 | 1010.8 |
| 20260504172540 | 64 | 309 | 5.2 | 11.3 | 0.00 | 0.00 | 0.00 | 28 | 1011.0 |
| 20260504172041 | 64 | 205 | 4.3 | 11.3 | 0.00 | 0.00 | 0.00 | 28 | 1011.1 |
| 20260504171547 | 63 | 267 | 5.2 | 12.2 | 0.00 | 0.00 | 0.00 | 28 | 1011.1 |
| 20260504171041 | 63 | 309 | 5.2 | 12.2 | 0.00 | 0.00 | 0.00 | 28 | 1011.1 |
| 20260504170541 | 62 | 267 | 4.3 | 12.2 | 0.00 | 0.00 | 0.00 | 28 | 1011.2 |
| 20260504151042 | 61 | 286 | 3.5 | 8.7 | 0.00 | 0.00 | 0.00 | 28 | 1011.3 |
| 20260504150540 | 61 | 196 | 3.5 | 8.7 | 0.00 | 0.00 | 0.00 | 27 | 1011.3 |
| 20260504141040 | 59 | 0 | 0.0 | 4.3 | 0.00 | 0.00 | 0.00 | 26 | 1011.3 |
| 20260504140543 | 58 | 242 | 1.7 | 4.3 | 0.00 | 0.00 | 0.00 | 26 | 1011.3 |
| 20260504130544 | 52 | 288 | 6.1 | 10.4 | 0.00 | 0.00 | 0.00 | 28 | 1011.2 |
| 20260504110544 | 48 | 318 | 1.7 | 4.3 | 0.00 | 0.00 | 0.00 | 33 | 1010.9 |
| 20260504100543 | 47 | 347 | 0.9 | 7.0 | 0.00 | 0.00 | 0.00 | 33 | 1011.1 |
| 20260504081552 | 48 | 275 | 3.5 | 8.7 | 0.00 | 0.00 | 0.00 | 33 | 1011.9 |
| 20260504081043 | 49 | 297 | 3.5 | 7.8 | 0.00 | 0.00 | 0.00 | 32 | 1012.1 |
| 20260504080543 | 49 | 279 | 2.6 | 7.0 | 0.00 | 0.00 | 0.00 | 32 | 1012.2 |
| 20260504050543 | 57 | 267 | 6.1 | 10.4 | 0.00 | 0.00 | 0.00 | 27 | 1012.8 |
| 20260504045542 | 57 | 276 | 6.1 | 9.6 | 0.00 | 0.00 | 0.00 | 26 | 1012.7 |
| 20260504045043 | 58 | 331 | 5.2 | 8.7 | 0.00 | 0.00 | 0.00 | 27 | 1012.7 |
| 20260504044554 | 58 | 291 | 6.1 | 8.7 | 0.00 | 0.00 | 0.00 | 26 | 1012.7 |
| 20260504044043 | 58 | 300 | 4.3 | 9.6 | 0.00 | 0.00 | 0.00 | 26 | 1012.7 |
| 20260504043544 | 58 | 290 | 5.2 | 10.4 | 0.00 | 0.00 | 0.00 | 27 | 1012.7 |
| 20260504043057 | 58 | 297 | 3.5 | 10.4 | 0.00 | 0.00 | 0.00 | 27 | 1012.8 |
| 20260504042544 | 59 | 279 | 5.2 | 10.4 | 0.00 | 0.00 | 0.00 | 26 | 1012.8 |
| 20260504042042 | 59 | 263 | 4.3 | 9.6 | 0.00 | 0.00 | 0.00 | 26 | 1012.9 |
| 20260504041552 | 60 | 294 | 4.3 | 9.6 | 0.00 | 0.00 | 0.00 | 26 | 1012.9 |
| 20260504041042 | 62 | 286 | 4.3 | 13.0 | 0.00 | 0.00 | 0.00 | 24 | 1012.9 |
| 20260504040542 | 62 | 302 | 5.2 | 13.0 | 0.00 | 0.00 | 0.00 | 24 | 1013.0 |
| 20260504040055 | 62 | 285 | 4.3 | 15.6 | 0.00 | 0.00 | 0.00 | 24 | 1013.1 |
| 20260504035543 | 62 | 311 | 5.2 | 15.6 | 0.00 | 0.00 | 0.00 | 24 | 1013.1 |
| 20260504035042 | 62 | 286 | 7.0 | 15.6 | 0.00 | 0.00 | 0.00 | 24 | 1013.2 |
| 20260504034552 | 62 | 288 | 6.1 | 12.2 | 0.00 | 0.00 | 0.00 | 24 | 1013.2 |
| 20260504034042 | 62 | 263 | 6.1 | 12.2 | 0.00 | 0.00 | 0.00 | 25 | 1013.3 |
| 20260504033545 | 62 | 275 | 7.0 | 12.2 | 0.00 | 0.00 | 0.00 | 25 | 1013.3 |
| 20260504033051 | 62 | 269 | 4.3 | 10.4 | 0.00 | 0.00 | 0.00 | 25 | 1013.2 |
| 20260504032540 | 62 | 273 | 4.3 | 12.2 | 0.00 | 0.00 | 0.00 | 25 | 1013.2 |
| 20260504032046 | 62 | 245 | 5.2 | 12.2 | 0.00 | 0.00 | 0.00 | 24 | 1013.2 |
| 20260504031553 | 62 | 298 | 5.2 | 12.2 | 0.00 | 0.00 | 0.00 | 25 | 1013.2 |
| 20260504031042 | 62 | 268 | 6.1 | 11.3 | 0.00 | 0.00 | 0.00 | 25 | 1013.2 |
| 20260504030542 | 62 | 254 | 5.2 | 11.3 | 0.00 | 0.00 | 0.00 | 25 | 1013.2 |
| 20260504030050 | 63 | 292 | 5.2 | 13.9 | 0.00 | 0.00 | 0.00 | 25 | 1013.2 |
| 20260504025539 | 63 | 258 | 6.1 | 13.9 | 0.00 | 0.00 | 0.00 | 24 | 1013.2 |
| 20260504025044 | 63 | 262 | 5.2 | 11.3 | 0.00 | 0.00 | 0.00 | 24 | 1013.1 |
| 20260504024556 | 63 | 267 | 4.3 | 10.4 | 0.00 | 0.00 | 0.00 | 24 | 1013.1 |
| 20260504024044 | 63 | 262 | 3.5 | 12.2 | 0.00 | 0.00 | 0.00 | 23 | 1013.1 |
| 20260504023542 | 63 | 235 | 4.3 | 12.2 | 0.00 | 0.00 | 0.00 | 23 | 1013.1 |
| 20260504023052 | 63 | 217 | 3.5 | 8.7 | 0.00 | 0.00 | 0.00 | 23 | 1013.1 |
| 20260504022541 | 63 | 236 | 2.6 | 7.0 | 0.00 | 0.00 | 0.00 | 23 | 1013.1 |
| 20260504022040 | 63 | 265 | 1.7 | 7.0 | 0.00 | 0.00 | 0.00 | 23 | 1013.1 |
| 20260504021549 | 63 | 298 | 2.6 | 7.0 | 0.00 | 0.00 | 0.00 | 23 | 1013.1 |
| 20260504021042 | 63 | 229 | 1.7 | 6.1 | 0.00 | 0.00 | 0.00 | 23 | 1013.0 |
| 20260504020543 | 64 | 259 | 2.6 | 6.1 | 0.00 | 0.00 | 0.00 | 22 | 1013.0 |
| 20260504020127 | 64 | 236 | 0.9 | 7.8 | 0.00 | 0.00 | 0.00 | 22 | 1012.9 |
| 20260504015541 | 64 | 0 | 0.9 | 7.8 | 0.00 | 0.00 | 0.00 | 21 | 1012.9 |
| 20260504015044 | 64 | 279 | 0.9 | 7.8 | 0.00 | 0.00 | 0.00 | 21 | 1012.7 |
| 20260504014605 | 64 | 0 | 0.0 | 2.6 | 0.00 | 0.00 | 0.00 | 21 | 1012.7 |
| 20260504014041 | 65 | 0 | 0.0 | 7.0 | 0.00 | 0.00 | 0.00 | 21 | 1012.7 |
| 20260504013541 | 65 | 294 | 0.0 | 7.0 | 0.00 | 0.00 | 0.00 | 21 | 1012.6 |
| 20260504013110 | 65 | 325 | 0.0 | 3.5 | 0.00 | 0.00 | 0.00 | 20 | 1012.5 |
| 20260504012541 | 65 | 262 | 0.0 | 7.0 | 0.00 | 0.00 | 0.00 | 20 | 1012.4 |
| 20260504012041 | 65 | 287 | 0.9 | 7.0 | 0.00 | 0.00 | 0.00 | 21 | 1012.4 |
| 20260504011551 | 66 | 286 | 2.6 | 8.7 | 0.00 | 0.00 | 0.00 | 21 | 1012.4 |
| 20260504011040 | 66 | 262 | 3.5 | 8.7 | 0.00 | 0.00 | 0.00 | 21 | 1012.4 |
| 20260504010540 | 66 | 267 | 1.7 | 7.8 | 0.00 | 0.00 | 0.00 | 21 | 1012.5 |
| 20260504010051 | 66 | 277 | 2.6 | 12.2 | 0.00 | 0.00 | 0.00 | 21 | 1012.6 |
| 20260504005541 | 66 | 310 | 3.5 | 15.6 | 0.00 | 0.00 | 0.00 | 21 | 1012.5 |
| 20260504005041 | 66 | 298 | 5.2 | 15.6 | 0.00 | 0.00 | 0.00 | 21 | 1012.7 |
| 20260504004618 | 66 | 257 | 6.1 | 14.8 | 0.00 | 0.00 | 0.00 | 21 | 1012.9 |
| 20260504004041 | 67 | 288 | 5.2 | 14.8 | 0.00 | 0.00 | 0.00 | 21 | 1013.1 |
| 20260504003541 | 67 | 274 | 4.3 | 14.8 | 0.00 | 0.00 | 0.00 | 21 | 1013.1 |
| 20260504003054 | 67 | 315 | 5.2 | 13.9 | 0.00 | 0.00 | 0.00 | 21 | 1013.1 |
| 20260504002541 | 67 | 294 | 4.3 | 13.9 | 0.00 | 0.00 | 0.00 | 21 | 1013.4 |
| 20260504002041 | 67 | 286 | 6.1 | 13.9 | 0.00 | 0.00 | 0.00 | 20 | 1013.1 |
| 20260504001618 | 67 | 307 | 3.5 | 8.7 | 0.00 | 0.00 | 0.00 | 20 | 1013.5 |
| 20260504001042 | 67 | 0 | 0.9 | 7.0 | 0.00 | 0.00 | 0.00 | 21 | 1013.3 |
| 20260504000540 | 67 | 229 | 1.7 | 19.1 | 0.00 | 0.00 | 0.00 | 21 | 1013.4 |
| 20260503235541 | 67 | 273 | 4.3 | 12.2 | 0.00 | 0.00 | 0.00 | 20 | 1013.5 |
| 20260503235041 | 67 | 309 | 0.9 | 9.6 | 0.00 | 0.00 | 0.00 | 21 | 1013.5 |
| 20260503234551 | 67 | 225 | 0.9 | 11.3 | 0.00 | 0.00 | 0.00 | 21 | 1013.5 |
| 20260503234041 | 67 | 340 | 3.5 | 11.3 | 0.00 | 0.00 | 0.00 | 21 | 1013.7 |
| 20260503233540 | 67 | 334 | 1.7 | 13.0 | 0.00 | 0.00 | 0.00 | 22 | 1013.7 |
| 20260503233055 | 67 | 0 | 5.2 | 13.0 | 0.00 | 0.00 | 0.00 | 21 | 1013.7 |
| 20260503232542 | 67 | 321 | 3.5 | 10.4 | 0.00 | 0.00 | 0.00 | 20 | 1013.8 |
| 20260503232042 | 68 | 344 | 5.2 | 10.4 | 0.00 | 0.00 | 0.00 | 20 | 1013.5 |
| 20260503231552 | 68 | 319 | 4.3 | 11.3 | 0.00 | 0.00 | 0.00 | 20 | 1013.5 |
| 20260503231043 | 68 | 300 | 5.2 | 11.3 | 0.00 | 0.00 | 0.00 | 20 | 1013.3 |
| 20260503230542 | 69 | 331 | 3.5 | 8.7 | 0.00 | 0.00 | 0.00 | 20 | 1013.3 |
| 20260503230111 | 69 | 344 | 2.6 | 11.3 | 0.00 | 0.00 | 0.00 | 19 | 1013.4 |
| 20260503225542 | 70 | 335 | 5.2 | 12.2 | 0.00 | 0.00 | 0.00 | 19 | 1013.5 |
| 20260503225042 | 69 | 339 | 5.2 | 12.2 | 0.00 | 0.00 | 0.00 | 19 | 1013.4 |
| 20260503224553 | 70 | 330 | 3.5 | 10.4 | 0.00 | 0.00 | 0.00 | 19 | 1013.5 |
| 20260503224042 | 69 | 360 | 6.1 | 15.6 | 0.00 | 0.00 | 0.00 | 21 | 1013.3 |
| 20260503223544 | 69 | 15 | 3.5 | 16.5 | 0.00 | 0.00 | 0.00 | 20 | 1013.3 |
| 20260503223056 | 69 | 350 | 7.8 | 20.0 | 0.00 | 0.00 | 0.00 | 19 | 1013.4 |
| 20260503222542 | 69 | 325 | 7.8 | 22.6 | 0.00 | 0.00 | 0.00 | 20 | 1013.3 |
| 20260503222042 | 68 | 339 | 11.3 | 22.6 | 0.00 | 0.00 | 0.00 | 19 | 1013.4 |
| 20260503221545 | 68 | 334 | 7.8 | 18.2 | 0.00 | 0.00 | 0.00 | 20 | 1013.5 |
| 20260503221043 | 69 | 294 | 7.8 | 18.2 | 0.00 | 0.00 | 0.00 | 19 | 1013.4 |
| 20260503220542 | 70 | 333 | 5.2 | 13.9 | 0.00 | 0.00 | 0.00 | 18 | 1013.4 |
| 20260503220054 | 70 | 342 | 7.8 | 12.2 | 0.00 | 0.00 | 0.00 | 17 | 1013.6 |
| 20260503215542 | 70 | 345 | 3.5 | 7.8 | 0.00 | 0.00 | 0.00 | 17 | 1013.5 |
| 20260503215039 | 70 | 0 | 2.6 | 10.4 | 0.00 | 0.00 | 0.00 | 17 | 1013.6 |
| 20260503214557 | 69 | 295 | 2.6 | 15.6 | 0.00 | 0.00 | 0.00 | 17 | 1013.8 |
| 20260503214042 | 69 | 311 | 7.0 | 15.6 | 0.00 | 0.00 | 0.00 | 16 | 1014.0 |
| 20260503213544 | 70 | 213 | 4.3 | 13.9 | 0.00 | 0.00 | 0.00 | 16 | 1014.2 |
| 20260503213052 | 70 | 271 | 5.2 | 12.2 | 0.00 | 0.00 | 0.00 | 16 | 1014.2 |
| 20260503212539 | 71 | 290 | 4.3 | 12.2 | 0.00 | 0.00 | 0.00 | 15 | 1014.1 |
| 20260503212041 | 71 | 263 | 2.6 | 9.6 | 0.00 | 0.00 | 0.00 | 15 | 1014.0 |
| 20260503211551 | 71 | 225 | 3.5 | 12.2 | 0.00 | 0.00 | 0.00 | 15 | 1013.9 |